Flag for Burkina Faso Weather past 2 weeks in Koudougou, Burkina Faso

Now
86 °F

Scattered clouds.


Feels Like: 95 °F
Forecast: N/A
Wind: 6 mph from Southwest

Location: Ouagadougou Airport

Current Time: Aug 28, 2015 at 5:26:14 PM

Latest Report: Aug 28, 2015 at 5:00 PM


Visibility: N/A

Pressure: 29.83 "Hg

Humidity: 70%

Dew point: 75 °F

Location of KoudougouLocation

Historic Weather in Koudougou — Graph

°F

Koudougou temperature yesterday

Maximum temperature yesterday: 84 °F (at 3:00 PM)
Minimum temperature yesterday: 72 °F (at 12:00 AM)
Average temperature yesterday: 76 °F

Past Weeks' High & Low Weather Summary

 TemperatureHumidityPressure
High93 °F (Aug 24, 2:00 PM)100% (Aug 14, 2:00 PM)30.07 "Hg (Aug 14, 2:00 PM)
Low70 °F (Aug 14, 2:00 PM)52% (Aug 23, 3:00 PM)29.80 "Hg (Aug 24, 4:00 PM)
Average80 °F83%29.93 "Hg
* Reported Aug 13 4:00 PM — Aug 28 4:00 PM, Koudougou, Weather by CustomWeather, © 2015

Note: Actual official high and low records may vary slightly from our data, if they occured in-between our weather recording intervals... More about our weather records

Advertising

Koudougou weather history for previous 24 hours

 ConditionsComfort  
Time TempWeatherWind HumidityBarometerVisibility
4:00 PM
Fri, Aug 28
88 °FScattered clouds.5 mph66%29.86 "HgN/A
2:00 PM88 °FScattered clouds.6 mph66%29.89 "HgN/A
1:00 PM88 °FScattered clouds.7 mph66%29.92 "HgN/A
12:00 PM86 °FScattered clouds.8 mph70%29.92 "HgN/A
11:00 AM86 °FScattered clouds.6 mph66%29.95 "HgN/A
10:00 AM82 °FBroken clouds.6 mph74%29.95 "HgN/A
9:00 AM81 °FBroken clouds.5 mph84%29.95 "HgN/A
8:00 AM79 °FScattered clouds.3 mph89%29.95 "Hg4 mi
7:00 AM75 °FFog.2 mph100%29.92 "Hg2 mi
6:00 AM73 °FClear.2 mph100%29.89 "Hg4 mi
5:00 AM73 °FClear.No wind100%29.89 "Hg10 mi
4:00 AM73 °FClear.No wind100%29.86 "Hg10 mi
3:00 AM73 °FClear.No wind100%29.86 "Hg10 mi
2:00 AM73 °FClear.1 mph100%29.89 "Hg10 mi
1:00 AM73 °FClear.No wind100%29.89 "Hg10 mi
12:00 AM75 °FClear.1 mph100%29.89 "Hg10 mi
11:00 PM
Thu, Aug 27
75 °FClear.No wind94%29.89 "Hg10 mi
10:00 PM75 °FClear.1 mph100%29.89 "Hg10 mi
9:00 PM77 °FPassing clouds.1 mph94%29.89 "HgN/A
8:00 PM77 °FPassing clouds.2 mph89%29.86 "HgN/A
7:00 PM79 °FPassing clouds.3 mph84%29.86 "HgN/A
6:00 PM81 °FScattered clouds.3 mph84%29.86 "HgN/A
5:00 PM81 °FScattered clouds.5 mph84%29.86 "HgN/A
Weather by CustomWeather, © 2015

See weather overviewHow to use our weather pages